Regional Weather Roundup
Issued by NWS

Home | Current Version | Previous Version | Text Only | Print | Product List | Glossary Off
Versions: 1 2 3 4 5 6 7 8 9 10 11 12 13 14 15 16 17 18 19 20 21 22 23 24 25 26 27 28 29 30 31 32 33 34 35 36 37 38 39 40 41 42 43 44 45 46 47 48 49 50

000
ASUS43 KLSX 231007
RWRMO

WEATHER SUMMARY FOR MISSOURI
NATIONAL WEATHER SERVICE SPRINGFIELD MO
400 AM CST SUN NOV 23 2014

NOTE: "FAIR" INDICATES FEW OR NO CLOUDS BELOW 12,000 FEET WITH NO
       SIGNIFICANT WEATHER AND/OR OBSTRUCTIONS TO VISIBILITY.
       CURRENT SKY AND/OR WEATHER CONDITIONS ARE NOT AVAILABLE FOR
       CHILLICOTHE AND FARMINGTON.

MOZ001>031-035>038-043-044-053-054-231100-
...NORTHERN AND WESTERN MISSOURI...

CITY           SKY/WX    TMP DP  RH WIND       PRES   REMARKS
KANSAS CTY INT CLOUDY    53  51  93 SE12      29.57F
KANSAS C DTWN  CLOUDY    55  51  86 S7        29.58F
ST JOSEPH      CLOUDY    54  51  90 S12       29.56F
CHILLICOTHE      N/A     54  50  86 S9        29.63F
KIRKSVILLE     CLOUDY    53  50  89 S8        29.65F

$$
MOZ066>068-077>081-088>096-101>105-231100-
...SOUTHWEST MISSOURI...

CITY           SKY/WX    TMP DP  RH WIND       PRES   REMARKS
SPRINGFIELD    CLOUDY    54  51  90 SE15      29.65S
JOPLIN         CLOUDY    58  54  86 SE9       29.60F

$$
MOZ032>034-039>042-045>050-055>058-069>072-231100-
...CENTRAL MISSOURI...

CITY           SKY/WX    TMP DP  RH WIND       PRES   REMARKS
COLUMBIA       CLOUDY    54  50  86 SE13      29.66F
JEFFERSON CITY CLOUDY    56  49  77 SE9       29.67F
ROLLA          CLOUDY    52  46  80 SE10      29.69F
SEDALIA        LGT RAIN  56  51  84 S12       29.63F
WHITEMAN AFB   LGT RAIN  54  52  94 S10       29.61F
WARRENSBURG    RAIN      52  50  93 SE8       29.61F
OSAGE BEACH    CLOUDY    54  48  82 SE7       29.68S

$$
MOZ051-052-059>065-231100-
...EAST CENTRAL MISSOURI...

CITY           SKY/WX    TMP DP  RH WIND       PRES   REMARKS
ST LOUIS INTL  CLOUDY    55  44  66 SE10      29.75F
SPIRIT OF STL  CLOUDY    54  44  69 SE5       29.73F
ST CHARLES     CLOUDY    51  46  83 E8        29.75F

$$
MOZ072>076-082>087-097>100-106>115-231100-
...SOUTH CENTRAL AND SOUTHEAST MISSOURI...

CITY           SKY/WX    TMP DP  RH WIND       PRES   REMARKS
CAPE GIRARDEAU CLOUDY    52  46  80 SE12      29.84F
FARMINGTON     CLOUDY    52  45  76 SE9       29.79F
POPLAR BLUFF   MOCLDY    53  46  77 SE9       29.79F
WEST PLAINS    CLOUDY    53  48  83 SE9       29.74F

$$


USA.gov is the U.S. government's official web portal to all federal, state and local government web resources and services.